Home > Weather > Bucaramanga > Past weeks

Flag for Colombia Weather for the Past 2 Weeks in Bucaramanga, Colombia

Now
68 °F

Overcast.


Feels Like: 68 °F
Forecast: 71 / 86 °F
Wind: 5 mph from South

Location: Bucaramanga / Palonegro

Current Time: May 5, 2016 at 7:27:17 AM

Latest Report: May 5, 2016 at 7:00 AM


Visibility: N/A

Pressure: 30.03 "Hg (26.86 "Hg at 956m altitude)

Humidity: 94%

Dew Point: 66 °F

Location of BucaramangaLocation

Historic Weather in Bucaramanga — Graph

°F

Bucaramanga Temperature Yesterday

Maximum temperature yesterday: 73 °F (at 2:00 PM)
Minimum temperature yesterday: 66 °F (at 9:00 AM)
Average temperature yesterday: 68 °F

High & Low Weather Summary for the Past Weeks

 TemperatureHumidityPressure
High84 °F (Apr 30, 3:00 PM)100% (Apr 20, 6:00 AM)30.14 "Hg (Apr 20, 6:00 AM)
Low64 °F (Apr 30, 8:00 PM)58% (Apr 30, 2:00 PM)29.86 "Hg (Apr 26, 2:00 PM)
Average72 °F86%29.99 "Hg
* Reported Apr 20 6:00 AM — May 5 6:00 AM, Bucaramanga, Weather by CustomWeather, © 2016

Note: Actual official high and low records may vary slightly from our data, if they occured in-between our weather recording intervals... More about our weather records

Advertising

Bucaramanga Weather History for the Previous 24 Hours

Scroll right to see more
 ConditionsComfort  
Time TempWeatherWind HumidityBarometerVisibility
6:00 AM
Thu, May 5
68 °FFog.6 mph94%30.02 "HgN/A
5:00 AM68 °FPassing clouds.6 mph94%30.01 "HgN/A
1:00 AM68 °FPassing clouds.No wind94%30.02 "HgN/A
12:00 AM70 °FPassing clouds.No wind88%30.03 "HgN/A
11:00 PM
Wed, May 4
68 °FPassing clouds.No wind94%30.04 "HgN/A
10:00 PM68 °FPassing clouds.No wind94%30.03 "HgN/A
9:00 PM68 °FPartly cloudy.No wind94%30.01 "HgN/A
8:00 PM68 °FPassing clouds.3 mph94%29.99 "HgN/A
7:00 PM66 °FPartly cloudy.5 mph100%29.99 "Hg2 mi
6:00 PM66 °FFog.6 mph100%29.98 "Hg0 mi
5:00 PM68 °FFog.5 mph100%29.95 "Hg0 mi
4:00 PM68 °FFog.8 mph100%29.94 "Hg0 mi
3:00 PM72 °FScattered clouds.7 mph88%29.96 "HgN/A
2:00 PM73 °FBroken clouds.No wind74%29.98 "HgN/A
1:00 PM72 °FFog.6 mph94%30.02 "Hg5 mi
12:00 PM68 °FBroken clouds.6 mph94%30.07 "Hg1 mi
11:00 AM66 °FDrizzle. Broken clouds.2 mph100%30.11 "Hg2 mi
10:00 AM66 °FLight rain. Fog.3 mph100%30.13 "Hg0 mi
9:00 AM66 °FThunderstorms. Partly sunny.5 mph100%30.14 "Hg1 mi
8:00 AM68 °FDrizzle. Partly sunny.2 mph94%30.12 "Hg3 mi
7:00 AM68 °FDrizzle. Broken clouds.2 mph94%30.08 "Hg5 mi
Weather by CustomWeather, © 2016

See weather overviewHow to use our weather pages